Regional Weather Roundup
Issued by NWS San Diego, CA

Home | Current Version | Previous Version | Text Only | Print | Product List | Glossary On
Versions: 1 2 3 4 5 6 7 8 9 10 11 12 13 14 15 16 17 18 19 20 21 22 23 24 25 26 27 28 29 30 31 32 33 34 35 36 37 38 39 40 41 42 43 44 45 46 47 48 49 50
000
ASUS46 KSGX 110711
RWRSGX

SAN DIEGO HOURLY WEATHER ROUNDUP
NATIONAL WEATHER SERVICE SAN DIEGO CA
1100 PM PST SUN DEC 10 2017

NOTE: "FAIR" INDICATES FEW OR NO CLOUDS BELOW 12,000 FEET WITH NO
SIGNIFICANT WEATHER AND/OR OBSTRUCTIONS TO VISIBILITY.

CAZ042-043-060-061-PZZ750-775-110800-

GREATER SAN DIEGO AREA

CITY           SKY/WX    TMP DP  RH WIND       PRES   REMARKS
SAN DIEGO AP   MOCLDY    61  27  27 CALM      30.17R
NATIONAL CITY    N/A     58  25  27 CALM      30.18R
CHULA VISTA      N/A     56  29  36 CALM      30.08R
IMPERIAL BEACH MOCLDY    64  13  13 N10       30.16R
BROWN FIELD    MOCLDY    69   9   9 E6        30.16S
MIRAMAR MCAS   CLOUDY    60  14  16 E8        30.16R
MONTGOMERY FLD MOCLDY    61  16  17 E3        30.17R
GILLESPIE FLD  FAIR      54  18  24 N5        30.17R

$$

NORTH SAN DIEGO COUNTY

CITY           SKY/WX    TMP DP  RH WIND       PRES   REMARKS
CAMP PENDLETON CLOUDY    50  26  39 CALM      30.15F
OCEANSIDE AP   CLOUDY    51  35  54 CALM      30.15S
OCEANSIDE HBR    N/A     58  34  39 N3        30.17R
VISTA            N/A     61  23  23 CALM      30.13S
CARLSBAD       CLOUDY    64  18  17 CALM      30.15R
DEL MAR          N/A     67  19  15 CALM      30.17R
LA JOLLA SCRIP   N/A     69  19  15 E3        30.14S
FALLBROOK        N/A     68  16  13 CALM      30.17S
ESCONDIDO        N/A     58  25  28 CALM      30.16S
SAN MARCOS       N/A     68  16  13 CALM      30.16S
POWAY            N/A     55  22  27 CALM      30.18R

$$

EAST SAN DIEGO COUNTY

CITY           SKY/WX    TMP DP  RH WIND       PRES   REMARKS
RAMONA         CLOUDY    57  12  17 SW3       30.18S
SANTEE LAKES     N/A     53  22  29 CALM      30.17R
LA MESA          N/A     66  19  16 CALM      30.10R
JAMUL            N/A     57  18  21 CALM      30.16S
MT. LAGUNA OBS   N/A     47   6  18 E16       30.20F

$$

ORANGE COUNTY AND THE LOS ANGELES BASIN

CITY           SKY/WX    TMP DP  RH WIND       PRES   REMARKS
JOHN WAYNE AP  CLOUDY    65  22  19 N3        30.15S
LAGUNA BEACH     N/A     59  24  26 CALM      30.10S
LAKE FOREST FR   N/A     66  10  11 CALM      30.02S
HUNTINGTON BCH   N/A     56  34  43 CALM      30.16S
LOS ALAMITOS   FAIR      59  25  27 CALM      30.15S
FULLERTON      MOCLDY    61  22  22 N3        30.15R
LONG BEACH     PTCLDY    61  22  22 CALM      30.16R
L.A. AP        MOCLDY    68  18  14 CALM      30.17R
L.A. DOWNTOWN  PTCLDY    61  26  26 CALM      30.16S

$$

THE INLAND EMPIRE

CITY           SKY/WX    TMP DP  RH WIND       PRES   REMARKS
CORONA         CLOUDY    63  14  15 SE7       30.20R
CHINO          MOCLDY    62  17  17 S3        30.20R
ONTARIO        MOCLDY    59  18  20 NW7       30.19R
SAN BERNARDINO FAIR      53  15  21 NE5       30.21F
RIVERSIDE AP   MOCLDY    61  18  18 NE8       30.20S
MORENO VALLEY    N/A     59  21  22 CALM      28.32R
MARCH ARB      MOCLDY    57   7  13 NW7       30.21S
HORSETHIEF CYN   N/A     58   6  12 W3        30.21R
PERRIS           N/A     60  20  21 CALM        N/A
HEMET EAST       N/A     58   4  11 CALM      30.25S
FRENCH VALLEY  FAIR      57  12  17 N5        30.21S
TEMECULA         N/A     68  17  13 SW7       30.23F

$$

SAN BERNARDINO AND RIVERSIDE COUNTY MOUNTAINS

CITY           SKY/WX    TMP DP  RH WIND       PRES   REMARKS
BIG BEAR AP    MOCLDY    39   0  19 E9        30.41S WCI  33

$$

SOUTHERN DESERT INCLUDING THE COACHELLA VALLEY

CITY           SKY/WX    TMP DP  RH WIND       PRES   REMARKS
PALM SPRINGS   MOCLDY    64  14  14 NW6       30.23S
THOUSAND PALMS   N/A     61  11  14 N3        30.18F
PALM DESERT      N/A     57  28  33 CALM      27.20F
THERMAL        MOCLDY    60  15  17 N9        30.18S
BLYTHE         MOCLDY    57   4  12 CALM      30.22R
IMPERIAL AP    CLOUDY    56  15  20 W6        30.19R
EL CENTRO NAS  CLOUDY    54  13  19 W7        30.21R
YUMA AZ        CLOUDY    65  12  12 N9        30.18R
MEXICALI       MOCLDY    59  14  17 NW6       30.19S

$$

UPPER DESERT

CITY           SKY/WX    TMP DP  RH WIND       PRES   REMARKS
HESPERIA         N/A     45   6  20 CALM      30.49R
APPLE VALLEY     N/A     35   8  32 N1        30.41S
PALMDALE       MOCLDY    40   5  23 SW5       30.34R
LANCASTER      MOCLDY    35  -1  21 W8        30.33S WCI  29
EDWARDS AFB    MOCLDY    35  -3  19 S3        30.31S
DAGGETT        MOCLDY    44  -1  15 CALM      30.32S
29 PALMS N     MOCLDY    46  -3  13 NW9       30.37S
NEEDLES        MOCLDY    62   4  10 NW9       30.27R

$$

REGIONAL REPORTS

CITY           SKY/WX    TMP DP  RH WIND       PRES   REMARKS
SANTA BARBARA  CLOUDY    50  28  42 CALM      30.16R HAZE
SANDBERG       MOCLDY    56  -7   7 E28       30.34S
LAS VEGAS NV   CLOUDY    46   7  20 W5        30.36R
PHOENIX AZ     CLOUDY    63  14  15 E7        30.20S
TIJUANA        MOCLDY    68   7   9 CALM      30.18
ENSENADA NW      N/A     73  32  22 E22       30.06R

$$

OFFSHORE ISLANDS

CITY           SKY/WX    TMP DP  RH WIND       PRES   REMARKS
CATALINA ARPT  MOCLDY    71  12  10 SE8       30.21R
SAN NICOLAS IS MOCLDY    71  32  23 S6        30.16S

$$

MARINE AND OFFSHORE BUOY REPORTS

STATION/POSITION SKY/WX   TEMP    WIND        PRES    VSBY  SWELL
                          AIR SEA DIR/SP/G                  HT/PER/DIR
                          (F)     (DEG/KT/KT) (MB)    (MI)  (FT/S/D)
TANNER BANKS               65 62              1020.6R
S CLEMENTE BASIN           67 64   50/  4/  6 1020.9R         5/280/13
SAN NICOLAS IS.               62                N/A           3/290/13
SO. S. ROSA ISLA           64 60  140/  6/  8 1021.0R         5/280/12
W. S. BARBARA CH           63 60   30/  2/  4 1021.1R         5/270/11
M. S. BARBARA CH           61 60  140/  2/  4 1022.3
S. MONICA BASIN               61   70/ 10/ 12 1020.8
S PEDRO CHANNEL               62                N/A           2/250/13
CMP PENDLETON NS              62                N/A           3/220/14
OCEANSIDE OFFSHR              63                N/A           2/210/15
TORREY PINES OTR              63                N/A           2/200/15
SAN DIEGO BAY                                 1021.7R
POINT LOMA SOUTH              65                N/A           3/250/13

$$




USA.gov is the U.S. government's official web portal to all federal, state and local government web resources and services.